CZ-6A DEB, 55207

Orbit data source: Space-Track

CZ-6A DEB, 55207 is space debris in SSO originally from a launch on Fri, 11 Nov 2022 UTC launched from the Taiyaun Space Center, China (TSC). Debris objects in space refer to the collection of defunct objects orbiting the Earth. Examples of debris include non-operational satellites, rocket bodies, and fragments generated from explosions, collisions, or faulty payload assembly.

Loading next visibility...
Identifier
55207, 2022-151VY
Orbit
SSO
Country
Flag of CNCN / PRC
Related business
Manufacturer
SAST
Mission
Spacecraft
Bus & Motor
Unknown
Mass
Unknown
Launch date (UTC)
2022-11-11 (4 years ago)
Launch vehicle
Unknown
Launch site
Taiyaun Space Center, China (TSC)
Object type
Payload
Rocket body
Debris
Shape & HBR
Unknown shape, 0.1 m
Radar Cross Section
Medium (>0.1 m² and <1 m²)

Expand to show TLE details & history
Last TLE update: 2 days ago

TLE from 2 days ago
0 CZ-6A DEB
1 55207U 22151VY  26171.18237921  .00014556  00000-0  17702-2 0  9990
2 55207  98.6348 248.1012 0060673 243.2519 116.2475 14.82267552186165
Epoch: 2026-06-20T04:22Z
TLE epoch observation values (Epoch: 2026-06-20T04:22:37.563Z)
Latitude
-0.00006°
Longitude
-85.95598°
Altitude
644.171 km
Speed
7.526 km/s
True Right ascension
16h 32m 24s
True Declination
0° 00' 00"
Sunlit
Object was in full shadow at epoch
Visualization orbit readout
Latitude
Unknown
Longitude
Unknown
Altitude
Unknown
Speed
Unknown
Apparent Right ascension
Unknown
Apparent Declination
Unknown
Sunlit
N/A
Visualization observer readout
Local Sidereal Time
21:28:32
Azimuth
Unknown
Elevation
Unknown
Doppler factor
Unknown
Orbital elements
Apogee altitude
661.703 km
Perigee altitude
576.793 km
Semi-major axis
6,997.385 km
Eccentricity
0.00607
Inclination
98.6348°
RAAN
248.1012°
Arg. of periapsis
243.2519°
True anomaly
116.86898°
Mean anomaly
116.2475°
Eccentric anomaly
116.55845°
Mean motion
3.708 °/min
Orbital period
97.09 mins
BSTAR
0.0017702
Loading maneuver chart data...
Computing Atmospheric mass density...
Loading historical data...
Loading historical data...
Loading historical data...
Loading historical data...
Loading historical data...
Loading historical data...
Loading historical data...

Documentation

Showing up to 5 results
|